Regional Weather Roundup
Issued by NWS

Home | Current Version | Previous Version | Text Only | Print | Product List | Glossary Off
Versions: 1 2 3 4 5 6 7 8 9 10 11 12 13 14 15 16 17 18 19 20 21 22 23 24 25 26 27 28 29 30 31 32 33 34 35 36 37 38 39 40 41 42 43 44 45 46 47 48 49 50

000
ASUS43 KLOT 011421
RWRIL

ILLINOIS REGIONAL WEATHER ROUNDUP
NATIONAL WEATHER SERVICE CHICAGO/ROMEOVILLE IL
900 AM CDT TUE SEP 01 2015

NOTE: "FAIR" INDICATES FEW OR NO CLOUDS BELOW 12,000 FEET WITH NO
SIGNIFICANT WEATHER AND/OR OBSTRUCTIONS TO VISIBILITY.

* THESE STATIONS ARE NOT UNDER NWS QUALITY CONTROL. THEY ALSO MAY NOT
  REPORT WEATHER SUCH AS PRECIPITATION OR FOG.

ILZ001-002-007-009-015-016-024-011500-
NORTHWEST ILLINOIS

CITY           SKY/WX    TMP DP  RH WIND       PRES   REMARKS
MOLINE         SUNNY     79  71  76 SW8       30.03F HX  82
STERLING*      SUNNY     81  73  78 W8        30.03S HX  85
SAVANNA*       SUNNY     76  71  85 S5        30.03S
$$

ILZ003-004-008-010-011-017-018-011500-
NORTH CENTRAL ILLINOIS

CITY           SKY/WX    TMP DP  RH WIND       PRES   REMARKS
ROCKFORD       PTSUNNY   74  70  87 S3        30.05F FOG
FREEPORT*      SUNNY     76  72  86 SW8       30.05F
ROCHELLE*      SUNNY     74  72  92 CALM      30.06S FOG
DE KALB*       PTSUNNY   73  72  98 S5        30.07S FOG
PERU*          SUNNY     78  72  82 SW8       30.06S HX  80
$$

ILZ005-006-012>014-019>023-011500-
NORTHEAST ILLINOIS

CITY           SKY/WX    TMP DP  RH WIND       PRES   REMARKS
CHICAGO-OHARE  MOSUNNY   77  72  84 SW6       30.05S
CHICAGO-MIDWAY MOSUNNY   78  70  76 S8        30.06S HX  80
AURORA         MOSUNNY   76  72  87 S6        30.07S FOG
LANSING*       SUNNY     76  71  83 SW6       30.08S
JOLIET*        SUNNY     77  73  86 S6        30.07S
WAUKEGAN       MOSUNNY   75  71  87 SW7       30.05R
DUPAGE AIRPORT LGT RAIN  76  71  85 S7        30.06S
KANKAKEE*      MOSUNNY   77  72  85 S6        30.08F
WHEELING       SUNNY     77  71  82 S6        30.06S
MORRIS*        MOSUNNY   75  72  91 S3        30.06S
ROMEOVILLE*    MOSUNNY   75  71  87 S7        30.07S
NORTHERLY ISL    N/A     77  69  76 S8          N/A
$$

LMZ740>746-011500-
SOUTHERN LAKE MICHIGAN

STATION/POSITION SKY/WX   TEMP    WIND        PRES    VSBY  WAVE
                          AIR SEA DIR/SP/G                  HT/PER
                          (F)     (DEG/KT/KT) (MB)    (MI)  (FT/S)
SOUTHERN BUOY              71 69  180/ 10/ 10 1017.2R         0
WILMETTE HARBOR            67 62  320/  6/  6   N/A           0
HARRISON CRIB              73     190/ 10/ 11   N/A
BURNHAM HARBOR             77     220/  6/  7   N/A
CALUMET HARBOR             73     200/  7/  9   N/A
BURNS HARBOR               74     180/  8/ 13 1018.6S
MICHIGAN CITY              75     160/  8/  9   N/A
MICHIGAN CITY 6N           73 72  190/  6/  8   N/A           1
ST. JOSEPH                 73 71  200/  6/  6   N/A           1
$$

ILZ025>027-034>036-040-047-049-050-058-095>099-011500-
WEST-CENTRAL ILLINOIS

CITY           SKY/WX    TMP DP  RH WIND       PRES   REMARKS
QUINCY         MOSUNNY   77  71  82 SW9       30.07S
GALESBURG*     SUNNY     76  71  85 SW9       30.06F
MACOMB*        SUNNY     78  71  79 W9        30.08F HX  80
JACKSONVILLE*  SUNNY     79  72  78 SW10      30.08S HX  83
PITTSFIELD*    SUNNY     78  70  76 SW5       30.09S HX  80
$$

ILZ028>032-037-038-041>044-048-051>054-059>061-011500-
CENTRAL ILLINOIS

CITY           SKY/WX    TMP DP  RH WIND       PRES   REMARKS
PONTIAC        MOSUNNY   78  74  87 S5        30.08S
BLOOMINGTON    MOSUNNY   76  73  90 SW10      30.10R
DECATUR        MOSUNNY   75  69  81 SW9       30.11R
PEORIA         SUNNY     80  71  74 SW6       30.07S HX  84
LACON*         SUNNY     77  72  83 SW6       30.05S
LINCOLN*       SUNNY     79  71  77 SW6       30.08R HX  82
SPRINGFIELD    SUNNY     79  71  76 SW8       30.08S HX  82
TAYLORVILLE    SUNNY     77  70  78 SW8       30.10S
$$

ILZ033-039-045-046-055>057-062-063-011500-
EAST-CENTRAL ILLINOIS

CITY           SKY/WX    TMP DP  RH WIND       PRES   REMARKS
CHAMPAIGN      PTSUNNY   73  70  90 S12       30.12R
RANTOUL*       PTSUNNY   74  72  91 SE6       30.11R
MATTOON        CLOUDY    69  65  86 SE9       30.14R
PARIS*         CLOUDY    72  69  89 SW13      30.14R
$$

ILZ079-100>102-011500-
SOUTHWEST ILLINOIS

CITY           SKY/WX    TMP DP  RH WIND       PRES   REMARKS
ALTON          SUNNY     75  72  88 SW6       30.10S
BELLEVILLE     SUNNY     78  74  90 VRB1      30.09S
CAHOKIA*       SUNNY     79  70  74 SW7       30.09F HX  82
SPARTA*        SUNNY     78  69  74 SW5       30.12R HX  80
$$

ILZ064>066-069>071-074>076-080>082-084>086-088>090-092>094-011500-
SOUTH-CENTRAL ILLINOIS

CITY           SKY/WX    TMP DP  RH WIND       PRES   REMARKS
CARBONDALE     SUNNY     76  69  79 S6        30.12S
CAIRO*         SUNNY     75  72  91 CALM      30.13S
EFFINGHAM*     CLOUDY    72  68  87 E7        30.15R
MARION         SUNNY     77  70  78 SW6       30.13S
MT. VERNON     SUNNY     79  66  65 SW7       30.13S HX  81
SALEM*         SUNNY     78  69  74 SW5       30.12S HX  80
METROPOLIS*    SUNNY     76  72  86 CALM      30.14S
$$

ILZ067-068-072-073-078-083-087-091-011500-
SOUTHEAST ILLINOIS

CITY           SKY/WX    TMP DP  RH WIND       PRES   REMARKS
LAWRENCEVILLE  TSTM      73  69  87 N8        30.15R
FLORA*         PTSUNNY   77  68  74 CALM      30.13R
FAIRFIELD*     MOSUNNY   76  69  79 SW3       30.12S
HARRISBURG*    SUNNY     76  70  82 CALM      30.13S
ROBINSON*      TSTM      68  66  92 SW8       30.17R
CARMI*         SUNNY     76  71  85 CALM      30.13R
$$

ABBREVIATIONS USED IN REMARKS
   TC - TEMPERATURE IN CELSIUS
  WCI - WIND CHILL INDEX
   HX - HEAT INDEX
  VSB - VISIBILITY
$$



USA.gov is the U.S. government's official web portal to all federal, state and local government web resources and services.